| time (UTC) | temp C | wind direction | speed KPH | gust KPH | rain 1hr cm | rain 24hr cm | rain mn cm | humidity % | barometer mb |
| 20260506050325 | 4 | 357 | 0.0 | 1.6 | 0.00 | 0.00 | 0.00 | 75 | 1003.4 |
| 20260506044825 | 3 | 320 | 0.0 | 0.0 | 0.00 | 0.00 | 0.00 | 77 | 1003.4 |
| 20260506043326 | 3 | 320 | 1.6 | 3.2 | 0.00 | 0.00 | 0.00 | 79 | 1003.4 |
| 20260506041826 | 3 | 348 | 1.6 | 1.6 | 0.00 | 0.00 | 0.00 | 81 | 1003.0 |
| 20260506040326 | 3 | 43 | 0.0 | 0.0 | 0.00 | 0.00 | 0.00 | 82 | 1003.0 |
| 20260506034826 | 3 | 325 | 0.0 | 0.0 | 0.00 | 0.00 | 0.00 | 82 | 1003.4 |
| 20260506033328 | 3 | 325 | 0.0 | 0.0 | 0.00 | 0.00 | 0.00 | 81 | 1003.0 |
| 20260506031826 | 3 | 278 | 0.0 | 1.6 | 0.00 | 0.00 | 0.00 | 81 | 1003.4 |
| 20260506030325 | 3 | 181 | 0.0 | 0.0 | 0.00 | 0.00 | 0.00 | 80 | 1003.4 |
| 20260506024826 | 3 | 112 | 0.0 | 0.0 | 0.00 | 0.00 | 0.00 | 79 | 1003.4 |
| 20260506023325 | 4 | 122 | 0.0 | 1.6 | 0.00 | 0.00 | 0.00 | 79 | 1003.4 |
| 20260506021825 | 4 | 127 | 1.6 | 3.2 | 0.00 | 0.00 | 0.00 | 79 | 1003.4 |
| 20260506020325 | 3 | 114 | 0.0 | 0.0 | 0.00 | 0.00 | 0.00 | 80 | 1003.4 |
| 20260506014825 | 4 | 114 | 0.0 | 0.0 | 0.00 | 0.00 | 0.00 | 79 | 1003.4 |
| 20260506013327 | 4 | 197 | 0.0 | 0.0 | 0.00 | 0.00 | 0.00 | 78 | 1003.7 |
| 20260506011826 | 5 | 178 | 0.0 | 0.0 | 0.00 | 0.00 | 0.00 | 77 | 1003.4 |
| 20260506010327 | 5 | 10 | 0.0 | 0.0 | 0.00 | 0.00 | 0.00 | 77 | 1003.7 |
| 20260506004830 | 5 | 339 | 0.0 | 1.6 | 0.00 | 0.00 | 0.00 | 76 | 1003.7 |
| 20260506003325 | 5 | 316 | 0.0 | 0.0 | 0.00 | 0.00 | 0.00 | 76 | 1003.7 |
| 20260506001825 | 6 | 295 | 0.0 | 0.0 | 0.00 | 0.00 | 0.00 | 75 | 1003.4 |
| 20260506000325 | 6 | 289 | 3.2 | 3.2 | 0.00 | 0.00 | 0.00 | 77 | 1003.4 |
| 20260505234825 | 6 | 62 | 0.0 | 1.6 | 0.00 | 0.00 | 0.00 | 78 | 1003.4 |
| 20260505233326 | 6 | 94 | 0.0 | 0.0 | 0.00 | 0.00 | 0.00 | 78 | 1003.4 |
| 20260505231825 | 6 | 249 | 1.6 | 1.6 | 0.00 | 0.00 | 0.00 | 78 | 1003.4 |
| 20260505230325 | 6 | 30 | 1.6 | 1.6 | 0.00 | 0.00 | 0.00 | 77 | 1003.7 |
| 20260505224825 | 6 | 138 | 3.2 | 4.8 | 0.00 | 0.00 | 0.00 | 75 | 1003.7 |
| 20260505223325 | 6 | 97 | 6.4 | 9.7 | 0.00 | 0.00 | 0.00 | 76 | 1003.4 |
| 20260505221825 | 6 | 82 | 4.8 | 4.8 | 0.00 | 0.00 | 0.00 | 77 | 1003.4 |
| 20260505220346 | 6 | 149 | 1.6 | 1.6 | 0.00 | 0.00 | 0.00 | 77 | 1003.7 |
| 20260505214826 | 6 | 109 | 4.8 | 6.4 | 0.00 | 0.00 | 0.00 | 76 | 1003.4 |
| 20260505213326 | 6 | 102 | 6.4 | 11.3 | 0.00 | 0.00 | 0.00 | 76 | 1003.4 |
| 20260505211824 | 6 | 133 | 1.6 | 1.6 | 0.00 | 0.00 | 0.00 | 76 | 1003.4 |
| 20260505210325 | 6 | 105 | 1.6 | 1.6 | 0.00 | 0.00 | 0.00 | 75 | 1003.7 |
| 20260505204825 | 7 | 159 | 0.0 | 1.6 | 0.00 | 0.00 | 0.00 | 75 | 1003.4 |
| 20260505203324 | 7 | 34 | 0.0 | 0.0 | 0.00 | 0.00 | 0.00 | 75 | 1003.4 |
| 20260505201825 | 7 | 108 | 3.2 | 6.4 | 0.00 | 0.00 | 0.00 | 74 | 1003.4 |
| 20260505200325 | 7 | 174 | 0.0 | 0.0 | 0.00 | 0.00 | 0.00 | 74 | 1003.0 |
| 20260505194825 | 7 | 120 | 1.6 | 3.2 | 0.00 | 0.00 | 0.00 | 74 | 1003.0 |
| 20260505193325 | 7 | 275 | 3.2 | 4.8 | 0.00 | 0.00 | 0.00 | 74 | 1003.0 |
| 20260505191826 | 7 | 102 | 3.2 | 3.2 | 0.00 | 0.00 | 0.00 | 75 | 1002.7 |
| 20260505190325 | 7 | 151 | 3.2 | 3.2 | 0.00 | 0.00 | 0.00 | 75 | 1002.7 |
| 20260505184825 | 7 | 35 | 0.0 | 1.6 | 0.00 | 0.00 | 0.00 | 76 | 1002.7 |
| 20260505183325 | 7 | 127 | 1.6 | 3.2 | 0.00 | 0.00 | 0.00 | 75 | 1002.7 |
| 20260505181824 | 8 | 119 | 6.4 | 11.3 | 0.00 | 0.00 | 0.00 | 75 | 1002.7 |
| 20260505180331 | 8 | 336 | 1.6 | 3.2 | 0.00 | 0.00 | 0.00 | 75 | 1002.4 |
| 20260505174825 | 8 | 115 | 1.6 | 1.6 | 0.00 | 0.00 | 0.00 | 75 | 1002.7 |
| 20260505173325 | 8 | 149 | 3.2 | 4.8 | 0.00 | 0.00 | 0.00 | 75 | 1002.4 |
| 20260505171825 | 9 | 306 | 3.2 | 3.2 | 0.00 | 0.00 | 0.00 | 73 | 1002.4 |
| 20260505170325 | 10 | 282 | 1.6 | 3.2 | 0.00 | 0.00 | 0.00 | 72 | 1002.4 |
| 20260505164825 | 11 | 178 | 1.6 | 1.6 | 0.00 | 0.00 | 0.00 | 71 | 1002.4 |
| 20260505163325 | 11 | 306 | 1.6 | 3.2 | 0.00 | 0.00 | 0.00 | 70 | 1002.0 |
| 20260505161825 | 11 | 356 | 1.6 | 1.6 | 0.00 | 0.00 | 0.00 | 69 | 1002.0 |
| 20260505160325 | 10 | 231 | 0.0 | 0.0 | 0.00 | 0.00 | 0.00 | 71 | 1002.0 |
| 20260505153325 | 10 | 53 | 4.8 | 9.7 | 0.00 | 0.00 | 0.00 | 72 | 1002.0 |
| 20260505151826 | 11 | 293 | 1.6 | 3.2 | 0.00 | 0.00 | 0.00 | 72 | 1002.0 |
| 20260505150325 | 11 | 278 | 1.6 | 1.6 | 0.00 | 0.00 | 0.00 | 72 | 1002.0 |
| 20260505140325 | 13 | 278 | 6.4 | 9.7 | 0.00 | 0.00 | 0.00 | 55 | 1001.4 |
| 20260505124827 | 12 | 335 | 0.0 | 1.6 | 0.00 | 0.00 | 0.00 | 63 | 1001.7 |
| 20260505123325 | 12 | 275 | 0.0 | 0.0 | 0.00 | 0.00 | 0.00 | 63 | 1002.0 |
| 20260505121826 | 12 | 228 | 0.0 | 0.0 | 0.00 | 0.00 | 0.00 | 67 | 1002.0 |
| 20260505120326 | 12 | 218 | 1.6 | 3.2 | 0.00 | 0.00 | 0.00 | 66 | 1002.0 |
| 20260505114825 | 11 | 283 | 0.0 | 0.0 | 0.00 | 0.00 | 0.00 | 65 | 1002.0 |
| 20260505113326 | 11 | 317 | 4.8 | 4.8 | 0.00 | 0.00 | 0.00 | 65 | 1002.0 |
| 20260505111825 | 11 | 304 | 6.4 | 6.4 | 0.00 | 0.00 | 0.00 | 66 | 1002.0 |
| 20260505110325 | 11 | 321 | 4.8 | 6.4 | 0.00 | 0.00 | 0.00 | 68 | 1002.0 |
| 20260505101825 | 11 | 278 | 0.0 | 1.6 | 0.00 | 0.00 | 0.00 | 69 | 1002.4 |
| 20260505100325 | 11 | 328 | 1.6 | 1.6 | 0.00 | 0.00 | 0.00 | 70 | 1002.0 |
| 20260505094826 | 10 | 323 | 1.6 | 3.2 | 0.00 | 0.00 | 0.00 | 73 | 1002.0 |
| 20260505093326 | 10 | 286 | 0.0 | 0.0 | 0.00 | 0.00 | 0.00 | 73 | 1002.0 |
| 20260505091825 | 10 | 293 | 0.0 | 0.0 | 0.00 | 0.00 | 0.00 | 75 | 1002.4 |
| 20260505090326 | 10 | 312 | 3.2 | 3.2 | 0.00 | 0.00 | 0.00 | 73 | 1002.4 |
| 20260505084825 | 10 | 275 | 1.6 | 1.6 | 0.00 | 0.00 | 0.00 | 75 | 1002.0 |
| 20260505083326 | 10 | 183 | 0.0 | 0.0 | 0.00 | 0.00 | 0.00 | 80 | 1002.4 |
| 20260505081825 | 9 | 157 | 0.0 | 1.6 | 0.00 | 0.00 | 0.00 | 86 | 1002.4 |
| 20260505080326 | 8 | 152 | 0.0 | 0.0 | 0.00 | 0.00 | 0.00 | 92 | 1002.4 |
| 20260505074827 | 7 | 153 | 0.0 | 0.0 | 0.00 | 0.00 | 0.00 | 95 | 1002.4 |
| 20260505073327 | 6 | 159 | 0.0 | 1.6 | 0.00 | 0.00 | 0.00 | 95 | 1002.4 |
| 20260505071826 | 6 | 98 | 0.0 | 0.0 | 0.00 | 0.00 | 0.00 | 96 | 1002.4 |
| 20260505070326 | 5 | 84 | 0.0 | 0.0 | 0.00 | 0.00 | 0.00 | 96 | 1002.0 |
| 20260505064825 | 5 | 47 | 0.0 | 0.0 | 0.00 | 0.00 | 0.00 | 97 | 1002.4 |
| 20260505063325 | 3 | 122 | 0.0 | 1.6 | 0.00 | 0.00 | 0.00 | 96 | 1002.0 |
| 20260505061825 | 3 | 90 | 1.6 | 3.2 | 0.00 | 0.00 | 0.00 | 96 | 1002.4 |
| 20260505060324 | 3 | 117 | 1.6 | 1.6 | 0.00 | 0.00 | 0.00 | 96 | 1002.4 |
| 20260505054826 | 2 | 111 | 3.2 | 4.8 | 0.00 | 0.00 | 0.00 | 97 | 1002.4 |
| 20260505053326 | 1 | 127 | 0.0 | 1.6 | 0.00 | 0.00 | 0.00 | 96 | 1002.4 |